Regional Weather Roundup
Issued by NWS

Home | Current Version | Previous Version | Graphics & Text | Print | Product List | Glossary On
Versions: 1 2 3 4 5 6 7 8 9 10 11 12 13 14 15 16 17 18 19 20 21 22 23 24 25 26 27 28
000
ASUS45 KBOI 171110
RWRID

IDAHO REGIONAL WEATHER ROUNDUP
NATIONAL WEATHER SERVICE BOISE ID
400 AM MST SUN DEC 17 2017

NOTE: "FAIR" INDICATES FEW OR NO CLOUDS BELOW 12000 FEET
WITH NO SIGNIFICANT WEATHER AND/OR OBSTRUCTIONS TO VISIBILITY

IDZ012-014-171200-
SOUTHWEST IDAHO


CITY           SKY/WX    TMP DP  RH WIND       PRES   REMARKS
BOISE          PTCLDY    19  16  88 CALM      30.25S
CALDWELL       PTCLDY    21  18  88 NE5       30.29R WCI  15
MOUNTAIN HOME  PTCLDY    24  24 100 W6        30.25R WCI  16
$$

IDZ016-017-171200-
SOUTHCENTRAL IDAHO


CITY           SKY/WX    TMP DP  RH WIND       PRES   REMARKS
BURLEY           N/A     26  17  68 W10G30    30.19R WCI  16
JEROME         CLOUDY    24  19  81 SW9       30.20R WCI  14
TWIN FALLS     PTCLDY    18  14  84 S10       30.20R WCI   6
$$

IDZ019>023-171200-
SOUTHEAST IDAHO


CITY           SKY/WX    TMP DP  RH WIND       PRES   REMARKS
IDAHO FALLS      N/A     19  19 100 SW10      30.17R VSB 1/4 WCI   7
POCATELLO      CLOUDY    27  23  85 SW17      30.18R WCI  14
REXBURG        CLOUDY    20  20 100 SW5       30.15R WCI  13
$$

IDZ006-010-011-018-031-032-171200-
CENTRAL IDAHO MOUNTAINS


CITY           SKY/WX    TMP DP  RH WIND       PRES   REMARKS
MCCALL         PTCLDY     7   3  84 NE3       30.15S
HAILEY         CLEAR     14  12  92 NW10      30.14S WCI   1
STANLEY          N/A     -3  -8  79 CALM      30.15R
SALMON         CLOUDY     7   4  87 CALM      30.23S
CHALLIS        CLEAR     10   5  80 CALM      30.17S
$$

IDZ002-004-006-007-026-171200-
NORTHERN IDAHO


CITY           SKY/WX    TMP DP  RH WIND       PRES   REMARKS
LEWISTON       CLOUDY    28  24  85 E10       30.28S WCI  19
LOWELL           N/A     25  23  92 CALM      30.35S
COEUR D`ALENE  FLURRIES  27  25  92 S6        30.20S WCI  20
MULLAN PASS    CLOUDY    19  14  81 SW7       30.01S HAZE    WCI  10
$$




USA.gov is the U.S. government's official web portal to all federal, state and local government web resources and services.